Time,TemperatureF,DewpointF,PressureIn,WindDirection,WindDirectionDegrees,WindSpeedMPH,WindSpeedGustMPH,Humidity,HourlyPrecipIn,Conditions,Clouds,dailyrainin,SoftwareType,DateUTC
2013-01-01 00:00:00,29.8,23.2,29.60,SSE,157,1.0,10.0,76,0.00,,,0.04,WeatherCatV1.11B39,2013-01-01 05:00:00,
2013-01-01 00:05:00,29.8,22.9,29.59,SW,225,1.0,9.0,75,0.00,,,0.00,WeatherCatV1.11B39,2013-01-01 05:05:00,
2013-01-01 00:10:00,29.2,22.3,29.59,NNW,339,0.0,1.0,75,0.00,,,0.00,WeatherCatV1.11B39,2013-01-01 05:10:00,
2013-01-01 00:15:00,28.3,22.0,29.59,East,84,3.0,3.0,77,0.00,,,0.00,WeatherCatV1.11B39,2013-01-01 05:15:00,
2013-01-01 00:20:00,27.8,21.9,29.59,ESE,105,3.0,3.0,78,0.00,,,0.00,WeatherCatV1.11B39,2013-01-01 05:20:00,
2013-01-01 00:25:00,28.0,22.0,29.59,NE,44,3.0,5.0,78,0.00,,,0.00,WeatherCatV1.11B39,2013-01-01 05:25:00,
2013-01-01 00:30:00,28.6,22.6,29.59,SW,221,1.0,3.0,78,0.00,,,0.00,WeatherCatV1.11B39,2013-01-01 05:30:00,
2013-01-01 00:35:00,30.0,23.4,29.59,North,9,0.0,7.0,76,0.00,,,0.00,WeatherCatV1.11B39,2013-01-01 05:35:00,
2013-01-01 00:40:00,30.9,23.6,29.59,WSW,253,0.0,10.0,74,0.00,,,0.00,WeatherCatV1.11B39,2013-01-01 05:40:00,
2013-01-01 00:45:00,31.1,23.5,29.58,WSW,254,0.0,1.0,73,0.00,,,0.00,WeatherCatV1.11B39,2013-01-01 05:45:00,
2013-01-01 00:50:00,31.0,23.4,29.58,South,186,5.0,6.0,73,0.00,,,0.00,WeatherCatV1.11B39,2013-01-01 05:50:00,
2013-01-01 00:55:00,31.5,23.5,29.57,SSE,150,4.0,9.0,72,0.00,,,0.00,WeatherCatV1.11B39,2013-01-01 05:55:00,
2013-01-01 01:00:00,31.7,23.7,29.58,ENE,69,2.0,10.0,72,0.00,,,0.00,WeatherCatV1.11B39,2013-01-01 06:00:00,
2013-01-01 01:05:00,31.6,23.6,29.57,NW,312,1.0,4.0,72,0.00,,,0.00,WeatherCatV1.11B39,2013-01-01 06:05:00,
2013-01-01 01:10:00,31.6,23.6,29.57,NE,38,0.0,2.0,72,0.00,,,0.00,WeatherCatV1.11B39,2013-01-01 06:10:00,
2013-01-01 01:15:00,31.6,23.6,29.57,ENE,68,2.0,3.0,72,0.00,,,0.00,WeatherCatV1.11B39,2013-01-01 06:15:00,
2013-01-01 01:20:00,31.4,23.8,29.57,East,90,0.0,2.0,73,0.00,,,0.00,WeatherCatV1.11B39,2013-01-01 06:20:00,
2013-01-01 01:25:00,31.2,23.6,29.58,ESE,110,0.0,3.0,73,0.00,,,0.00,WeatherCatV1.11B39,2013-01-01 06:25:00,
2013-01-01 01:30:00,31.4,23.4,29.57,East,99,0.0,3.0,72,0.00,,,0.00,WeatherCatV1.11B39,2013-01-01 06:30:00,
2013-01-01 01:35:00,31.7,23.7,29.57,ENE,71,5.0,6.0,72,0.00,,,0.00,WeatherCatV1.11B39,2013-01-01 06:35:00,
2013-01-01 01:40:00,31.5,24.2,29.58,SE,132,3.0,5.0,74,0.00,,,0.00,WeatherCatV1.11B39,2013-01-01 06:40:00,
2013-01-01 01:45:00,31.1,24.1,29.57,SE,144,3.0,9.0,75,0.00,,,0.00,WeatherCatV1.11B39,2013-01-01 06:45:00,
2013-01-01 01:50:00,31.1,23.8,29.58,SE,142,3.0,6.0,74,0.00,,,0.00,WeatherCatV1.11B39,2013-01-01 06:50:00,
2013-01-01 01:55:00,31.1,23.8,29.58,North,349,6.0,9.0,74,0.00,,,0.00,WeatherCatV1.11B39,2013-01-01 06:55:00,
2013-01-01 02:00:00,31.3,23.7,29.58,SSE,167,0.0,6.0,73,0.00,,,0.00,WeatherCatV1.11B39,2013-01-01 07:00:00,
2013-01-01 02:05:00,31.3,23.7,29.59,SSW,209,3.0,4.0,73,0.00,,,0.00,WeatherCatV1.11B39,2013-01-01 07:05:00,
2013-01-01 02:10:00,31.0,24.7,29.60,SE,140,4.0,6.0,77,0.00,,,0.00,WeatherCatV1.11B39,2013-01-01 07:10:00,
2013-01-01 02:15:00,30.6,24.0,29.59,SSE,148,3.0,3.0,76,0.00,,,0.00,WeatherCatV1.11B39,2013-01-01 07:15:00,
2013-01-01 02:20:00,30.7,23.7,29.59,SE,138,6.0,11.0,75,0.00,,,0.00,WeatherCatV1.11B39,2013-01-01 07:20:00,
2013-01-01 02:25:00,31.0,23.4,29.59,North,351,7.0,9.0,73,0.00,,,0.00,WeatherCatV1.11B39,2013-01-01 07:25:00,
2013-01-01 02:30:00,31.2,23.2,29.59,ESE,113,4.0,5.0,72,0.00,,,0.00,WeatherCatV1.11B39,2013-01-01 07:30:00,
2013-01-01 02:35:00,31.2,22.6,29.59,SE,134,0.0,6.0,70,0.00,,,0.00,WeatherCatV1.11B39,2013-01-01 07:35:00,
2013-01-01 02:40:00,31.2,22.6,29.58,SE,129,0.0,8.0,70,0.00,,,0.00,WeatherCatV1.11B39,2013-01-01 07:40:00,
2013-01-01 02:45:00,30.9,22.6,29.58,SSE,153,3.0,7.0,71,0.00,,,0.00,WeatherCatV1.11B39,2013-01-01 07:45:00,
2013-01-01 02:50:00,30.8,22.9,29.58,ESE,123,1.0,4.0,72,0.00,,,0.00,WeatherCatV1.11B39,2013-01-01 07:50:00,
2013-01-01 02:55:00,30.6,23.3,29.58,SE,134,0.0,11.0,74,0.00,,,0.00,WeatherCatV1.11B39,2013-01-01 07:55:00,
2013-01-01 03:00:00,30.4,23.4,29.59,East,91,4.0,6.0,75,0.00,,,0.00,WeatherCatV1.11B39,2013-01-01 08:00:00,
2013-01-01 03:05:00,30.3,22.7,29.58,ENE,72,3.0,10.0,73,0.00,,,0.00,WeatherCatV1.11B39,2013-01-01 08:05:00,
2013-01-01 03:10:00,30.5,22.2,29.58,ESE,118,7.0,7.0,71,0.00,,,0.00,WeatherCatV1.11B39,2013-01-01 08:10:00,
2013-01-01 03:15:00,30.6,22.3,29.58,ESE,111,1.0,4.0,71,0.00,,,0.00,WeatherCatV1.11B39,2013-01-01 08:15:00,
2013-01-01 03:20:00,30.5,21.9,29.58,NE,43,2.0,6.0,70,0.00,,,0.00,WeatherCatV1.11B39,2013-01-01 08:20:00,
2013-01-01 03:25:00,30.5,22.2,29.57,East,99,3.0,4.0,71,0.00,,,0.00,WeatherCatV1.11B39,2013-01-01 08:25:00,
2013-01-01 03:30:00,30.3,22.0,29.57,NE,50,0.0,3.0,71,0.00,,,0.00,WeatherCatV1.11B39,2013-01-01 08:30:00,
2013-01-01 03:35:00,30.2,21.9,29.57,SE,128,2.0,9.0,71,0.00,,,0.00,WeatherCatV1.11B39,2013-01-01 08:35:00,
2013-01-01 03:40:00,30.3,22.0,29.56,SE,142,7.0,7.0,71,0.00,,,0.00,WeatherCatV1.11B39,2013-01-01 08:40:00,
2013-01-01 03:45:00,30.3,22.0,29.57,South,188,4.0,5.0,71,0.00,,,0.00,WeatherCatV1.11B39,2013-01-01 08:45:00,
2013-01-01 03:50:00,30.3,22.0,29.57,SSW,192,4.0,12.0,71,0.00,,,0.00,WeatherCatV1.11B39,2013-01-01 08:50:00,
2013-01-01 03:55:00,30.5,22.6,29.57,SSE,166,1.0,3.0,72,0.00,,,0.00,WeatherCatV1.11B39,2013-01-01 08:55:00,
2013-01-01 04:00:00,30.5,22.9,29.57,SW,219,1.0,5.0,73,0.00,,,0.00,WeatherCatV1.11B39,2013-01-01 09:00:00,
2013-01-01 04:05:00,30.3,23.0,29.57,South,178,3.0,8.0,74,0.00,,,0.00,WeatherCatV1.11B39,2013-01-01 09:05:00,
2013-01-01 04:10:00,30.1,22.8,29.57,ESE,111,5.0,5.0,74,0.00,,,0.00,WeatherCatV1.11B39,2013-01-01 09:10:00,
2013-01-01 04:15:00,30.0,23.4,29.57,South,191,3.0,13.0,76,0.00,,,0.00,WeatherCatV1.11B39,2013-01-01 09:15:00,
2013-01-01 04:20:00,29.7,23.7,29.57,South,180,1.0,10.0,78,0.00,,,0.00,WeatherCatV1.11B39,2013-01-01 09:20:00,
2013-01-01 04:25:00,29.5,23.5,29.56,SSE,153,5.0,13.0,78,0.00,,,0.00,WeatherCatV1.11B39,2013-01-01 09:25:00,
2013-01-01 04:30:00,29.4,23.4,29.57,SSE,157,7.0,11.0,78,0.00,,,0.00,WeatherCatV1.11B39,2013-01-01 09:30:00,
2013-01-01 04:35:00,29.4,23.7,29.57,South,180,3.0,3.0,79,0.00,,,0.00,WeatherCatV1.11B39,2013-01-01 09:35:00,
2013-01-01 04:40:00,29.4,23.7,29.57,SE,144,3.0,6.0,79,0.00,,,0.00,WeatherCatV1.11B39,2013-01-01 09:40:00,
2013-01-01 04:45:00,29.3,23.6,29.57,SSE,150,0.0,2.0,79,0.00,,,0.00,WeatherCatV1.11B39,2013-01-01 09:45:00,
2013-01-01 04:50:00,29.1,24.3,29.58,SE,140,1.0,4.0,82,0.00,,,0.00,WeatherCatV1.11B39,2013-01-01 09:50:00,
2013-01-01 04:55:00,28.5,24.3,29.58,NW,319,3.0,3.0,84,0.00,,,0.00,WeatherCatV1.11B39,2013-01-01 09:55:00,
2013-01-01 05:00:00,27.9,23.7,29.59,East,86,10.0,10.0,84,0.00,,,0.00,WeatherCatV1.11B39,2013-01-01 10:00:00,
2013-01-01 05:05:00,27.7,23.5,29.59,SW,215,6.0,10.0,84,0.00,,,0.00,WeatherCatV1.11B39,2013-01-01 10:05:00,
2013-01-01 05:10:00,27.9,21.3,29.59,East,98,13.0,13.0,76,0.00,,,0.00,WeatherCatV1.11B39,2013-01-01 10:10:00,
2013-01-01 05:15:00,27.9,21.0,29.60,SSE,147,3.0,7.0,75,0.00,,,0.00,WeatherCatV1.11B39,2013-01-01 10:15:00,
2013-01-01 05:20:00,27.8,20.9,29.60,NE,54,2.0,10.0,75,0.00,,,0.00,WeatherCatV1.11B39,2013-01-01 10:20:00,
2013-01-01 05:25:00,27.7,20.5,29.60,ESE,119,5.0,16.0,74,0.00,,,0.00,WeatherCatV1.11B39,2013-01-01 10:25:00,
2013-01-01 05:30:00,27.8,19.6,29.59,SSE,162,1.0,9.0,71,0.00,,,0.00,WeatherCatV1.11B39,2013-01-01 10:30:00,
2013-01-01 05:35:00,27.9,19.7,29.59,SSW,205,4.0,7.0,71,0.00,,,0.00,WeatherCatV1.11B39,2013-01-01 10:35:00,
2013-01-01 05:40:00,27.8,19.3,29.60,East,80,4.0,13.0,70,0.00,,,0.00,WeatherCatV1.11B39,2013-01-01 10:40:00,
2013-01-01 05:45:00,27.8,19.0,29.59,South,175,10.0,12.0,69,0.00,,,0.00,WeatherCatV1.11B39,2013-01-01 10:45:00,
2013-01-01 05:50:00,27.8,18.6,29.59,SSE,154,4.0,11.0,68,0.00,,,0.00,WeatherCatV1.11B39,2013-01-01 10:50:00,
2013-01-01 05:55:00,27.6,18.4,29.60,SSE,155,2.0,11.0,68,0.00,,,0.00,WeatherCatV1.11B39,2013-01-01 10:55:00,
2013-01-01 06:00:00,27.5,18.3,29.61,ESE,110,4.0,6.0,68,0.00,,,0.00,WeatherCatV1.11B39,2013-01-01 11:00:00,
2013-01-01 06:05:00,27.4,18.3,29.61,East,100,4.0,11.0,68,0.00,,,0.00,WeatherCatV1.11B39,2013-01-01 11:05:00,
2013-01-01 06:10:00,27.2,18.1,29.61,ENE,67,6.0,12.0,68,0.00,,,0.00,WeatherCatV1.11B39,2013-01-01 11:10:00,
2013-01-01 06:15:00,26.9,17.8,29.61,East,98,6.0,12.0,68,0.00,,,0.00,WeatherCatV1.11B39,2013-01-01 11:15:00,
2013-01-01 06:20:00,26.6,17.8,29.61,SSW,201,3.0,13.0,69,0.00,,,0.00,WeatherCatV1.11B39,2013-01-01 11:20:00,
2013-01-01 06:25:00,26.2,17.4,29.62,East,96,0.0,8.0,69,0.00,,,0.00,WeatherCatV1.11B39,2013-01-01 11:25:00,
2013-01-01 06:30:00,25.8,17.4,29.63,NNE,21,7.0,7.0,70,0.00,,,0.00,WeatherCatV1.11B39,2013-01-01 11:30:00,
2013-01-01 06:35:00,25.4,16.7,29.63,ESE,114,3.0,18.0,69,0.00,,,0.00,WeatherCatV1.11B39,2013-01-01 11:35:00,
2013-01-01 06:40:00,25.1,17.0,29.63,NNE,25,2.0,11.0,71,0.00,,,0.00,WeatherCatV1.11B39,2013-01-01 11:40:00,
2013-01-01 06:45:00,24.7,16.7,29.63,SE,128,8.0,14.0,71,0.00,,,0.00,WeatherCatV1.11B39,2013-01-01 11:45:00,
2013-01-01 06:50:00,24.4,16.4,29.63,SE,141,6.0,15.0,71,0.00,,,0.00,WeatherCatV1.11B39,2013-01-01 11:50:00,
2013-01-01 06:55:00,24.0,16.3,29.64,SSE,154,9.0,11.0,72,0.00,,,0.00,WeatherCatV1.11B39,2013-01-01 11:55:00,
2013-01-01 07:00:00,23.6,15.6,29.63,SSE,164,3.0,27.0,71,0.00,,,0.00,WeatherCatV1.11B39,2013-01-01 12:00:00,
2013-01-01 07:05:00,23.1,14.5,29.63,East,87,9.0,14.0,69,0.00,,,0.00,WeatherCatV1.11B39,2013-01-01 12:05:00,
2013-01-01 07:10:00,22.7,14.1,29.62,SSW,213,13.0,18.0,69,0.00,,,0.00,WeatherCatV1.11B39,2013-01-01 12:10:00,
2013-01-01 07:15:00,22.5,13.6,29.64,WSW,257,7.0,17.0,68,0.00,,,0.00,WeatherCatV1.11B39,2013-01-01 12:15:00,
2013-01-01 07:20:00,22.2,12.6,29.64,SSE,164,9.0,13.0,66,0.00,,,0.00,WeatherCatV1.11B39,2013-01-01 12:20:00,
2013-01-01 07:25:00,21.8,13.2,29.64,SE,132,5.0,19.0,69,0.00,,,0.00,WeatherCatV1.11B39,2013-01-01 12:25:00,
2013-01-01 07:30:00,21.5,12.6,29.63,ESE,123,7.0,22.0,68,0.00,,,0.00,WeatherCatV1.11B39,2013-01-01 12:30:00,
2013-01-01 07:35:00,21.4,12.2,29.65,ESE,115,22.0,22.0,67,0.00,,,0.00,WeatherCatV1.11B39,2013-01-01 12:35:00,
2013-01-01 07:40:00,21.2,12.0,29.65,SSW,200,11.0,13.0,67,0.00,,,0.00,WeatherCatV1.11B39,2013-01-01 12:40:00,
2013-01-01 07:45:00,21.0,11.5,29.64,ENE,61,12.0,19.0,66,0.00,,,0.00,WeatherCatV1.11B39,2013-01-01 12:45:00,
2013-01-01 07:50:00,20.8,11.3,29.63,SE,132,3.0,31.0,66,0.00,,,0.00,WeatherCatV1.11B39,2013-01-01 12:50:00,
2013-01-01 07:55:00,20.5,11.0,29.65,SW,229,7.0,28.0,66,0.00,,,0.00,WeatherCatV1.11B39,2013-01-01 12:55:00,
2013-01-01 08:00:00,20.1,11.3,29.64,NE,52,13.0,20.0,68,0.00,,,0.00,WeatherCatV1.11B39,2013-01-01 13:00:00,
2013-01-01 08:05:00,19.9,10.7,29.65,SE,136,5.0,18.0,67,0.00,,,0.00,WeatherCatV1.11B39,2013-01-01 13:05:00,
2013-01-01 08:10:00,19.7,9.9,29.64,SW,215,11.0,21.0,65,0.00,,,0.00,WeatherCatV1.11B39,2013-01-01 13:10:00,
2013-01-01 08:15:00,19.7,10.2,29.64,SSE,159,5.0,20.0,66,0.00,,,0.00,WeatherCatV1.11B39,2013-01-01 13:15:00,
2013-01-01 08:20:00,19.5,10.0,29.66,SSW,202,8.0,24.0,66,0.00,,,0.00,WeatherCatV1.11B39,2013-01-01 13:20:00,
2013-01-01 08:25:00,19.3,9.5,29.65,SE,142,7.0,20.0,65,0.00,,,0.00,WeatherCatV1.11B39,2013-01-01 13:25:00,
2013-01-01 08:30:00,19.1,9.3,29.65,ESE,119,4.0,20.0,65,0.00,,,0.00,WeatherCatV1.11B39,2013-01-01 13:30:00,
2013-01-01 08:35:00,18.8,9.0,29.65,SW,225,6.0,18.0,65,0.00,,,0.00,WeatherCatV1.11B39,2013-01-01 13:35:00,
2013-01-01 08:40:00,18.7,8.9,29.65,South,188,16.0,16.0,65,0.00,,,0.00,WeatherCatV1.11B39,2013-01-01 13:40:00,
2013-01-01 08:45:00,18.5,9.1,29.65,SE,136,9.0,14.0,66,0.00,,,0.00,WeatherCatV1.11B39,2013-01-01 13:45:00,
2013-01-01 08:50:00,18.2,9.4,29.64,WNW,294,11.0,19.0,68,0.00,,,0.00,WeatherCatV1.11B39,2013-01-01 13:50:00,
2013-01-01 08:55:00,18.0,8.9,29.66,South,190,13.0,20.0,67,0.00,,,0.00,WeatherCatV1.11B39,2013-01-01 13:55:00,
2013-01-01 09:00:00,18.0,8.6,29.66,East,90,10.0,11.0,66,0.00,,,0.00,WeatherCatV1.11B39,2013-01-01 14:00:00,
2013-01-01 09:05:00,18.0,8.2,29.66,ENE,60,7.0,28.0,65,0.00,,,0.00,WeatherCatV1.11B39,2013-01-01 14:05:00,
2013-01-01 09:10:00,18.0,7.9,29.67,South,181,13.0,24.0,64,0.00,,,0.00,WeatherCatV1.11B39,2013-01-01 14:10:00,
2013-01-01 09:15:00,18.0,7.9,29.67,ESE,113,4.0,15.0,64,0.00,,,0.00,WeatherCatV1.11B39,2013-01-01 14:15:00,
2013-01-01 09:20:00,17.9,7.8,29.68,ENE,71,6.0,21.0,64,0.00,,,0.00,WeatherCatV1.11B39,2013-01-01 14:20:00,
2013-01-01 09:26:00,18.0,7.6,29.69,SSW,207,12.0,14.0,63,0.00,,,0.00,WeatherCatV1.11B39,2013-01-01 14:26:00,
2013-01-01 09:31:00,18.0,7.2,29.67,ESE,115,7.0,12.0,62,0.00,,,0.00,WeatherCatV1.11B39,2013-01-01 14:31:00,
2013-01-01 09:36:00,18.1,7.3,29.67,SSE,152,5.0,28.0,62,0.00,,,0.00,WeatherCatV1.11B39,2013-01-01 14:36:00,
2013-01-01 09:41:00,18.1,6.9,29.69,NNE,30,4.0,21.0,61,0.00,,,0.00,WeatherCatV1.11B39,2013-01-01 14:41:00,
2013-01-01 09:46:00,17.9,7.1,29.69,NNE,25,6.0,17.0,62,0.00,,,0.00,WeatherCatV1.11B39,2013-01-01 14:46:00,
2013-01-01 09:51:00,17.8,7.0,29.68,ENE,74,3.0,20.0,62,0.00,,,0.00,WeatherCatV1.11B39,2013-01-01 14:51:00,
2013-01-01 09:56:00,18.0,7.6,29.69,WNW,284,2.0,14.0,63,0.00,,,0.00,WeatherCatV1.11B39,2013-01-01 14:56:00,
2013-01-01 10:01:00,18.2,7.0,29.70,NNE,24,4.0,15.0,61,0.00,,,0.00,WeatherCatV1.11B39,2013-01-01 15:01:00,
2013-01-01 10:06:00,18.4,7.6,29.70,East,95,4.0,22.0,62,0.00,,,0.00,WeatherCatV1.11B39,2013-01-01 15:06:00,
2013-01-01 10:11:00,18.1,7.3,29.68,WNW,286,4.0,23.0,62,0.00,,,0.00,WeatherCatV1.11B39,2013-01-01 15:11:00,
2013-01-01 10:16:00,18.1,6.9,29.69,West,260,12.0,14.0,61,0.00,,,0.00,WeatherCatV1.11B39,2013-01-01 15:16:00,
2013-01-01 10:21:00,18.0,7.2,29.69,WNW,286,4.0,16.0,62,0.00,,,0.00,WeatherCatV1.11B39,2013-01-01 15:21:00,
2013-01-01 10:26:00,18.1,6.9,29.69,North,0,5.0,16.0,61,0.00,,,0.00,WeatherCatV1.11B39,2013-01-01 15:26:00,
2013-01-01 10:31:00,18.2,5.9,29.69,ESE,103,3.0,14.0,58,0.00,,,0.00,WeatherCatV1.11B39,2013-01-01 15:31:00,
2013-01-01 10:36:00,18.4,5.4,29.70,NNW,332,13.0,15.0,56,0.00,,,0.00,WeatherCatV1.11B39,2013-01-01 15:36:00,
2013-01-01 10:41:00,18.4,5.4,29.70,SW,229,6.0,14.0,56,0.00,,,0.00,WeatherCatV1.11B39,2013-01-01 15:41:00,
2013-01-01 10:46:00,18.4,5.4,29.69,South,182,6.0,6.0,56,0.00,,,0.00,WeatherCatV1.11B39,2013-01-01 15:46:00,
2013-01-01 10:51:00,18.7,5.2,29.70,South,169,14.0,15.0,55,0.00,,,0.00,WeatherCatV1.11B39,2013-01-01 15:51:00,
2013-01-01 10:56:00,19.3,4.6,29.70,East,98,0.0,11.0,52,0.00,,,0.00,WeatherCatV1.11B39,2013-01-01 15:56:00,
2013-01-01 11:01:00,19.5,4.8,29.69,SSW,192,5.0,7.0,52,0.00,,,0.00,WeatherCatV1.11B39,2013-01-01 16:01:00,
2013-01-01 11:06:00,19.7,5.4,29.69,SW,221,10.0,16.0,53,0.00,,,0.00,WeatherCatV1.11B39,2013-01-01 16:06:00,
2013-01-01 11:11:00,19.7,4.1,29.70,SSW,213,7.0,21.0,50,0.00,,,0.00,WeatherCatV1.11B39,2013-01-01 16:11:00,
2013-01-01 11:16:00,19.7,3.7,29.69,ENE,72,3.0,7.0,49,0.00,,,0.00,WeatherCatV1.11B39,2013-01-01 16:16:00,
2013-01-01 11:21:00,19.9,4.7,29.69,SE,130,3.0,7.0,51,0.00,,,0.00,WeatherCatV1.11B39,2013-01-01 16:21:00,
2013-01-01 11:26:00,20.1,4.0,29.69,NE,53,3.0,5.0,49,0.00,,,0.00,WeatherCatV1.11B39,2013-01-01 16:26:00,
2013-01-01 11:31:00,20.4,3.9,29.68,East,82,5.0,6.0,48,0.00,,,0.00,WeatherCatV1.11B39,2013-01-01 16:31:00,
2013-01-01 11:36:00,21.0,4.4,29.68,South,169,3.0,6.0,48,0.00,,,0.00,WeatherCatV1.11B39,2013-01-01 16:36:00,
2013-01-01 11:41:00,20.9,3.9,29.69,SE,142,8.0,8.0,47,0.00,,,0.00,WeatherCatV1.11B39,2013-01-01 16:41:00,
2013-01-01 11:46:00,21.2,3.7,29.69,ENE,57,0.0,8.0,46,0.00,,,0.00,WeatherCatV1.11B39,2013-01-01 16:46:00,
2013-01-01 11:51:00,21.7,5.1,29.69,South,179,3.0,5.0,48,0.00,,,0.00,WeatherCatV1.11B39,2013-01-01 16:51:00,
2013-01-01 11:56:00,21.7,5.1,29.70,West,273,1.0,5.0,48,0.00,,,0.00,WeatherCatV1.11B39,2013-01-01 16:56:00,
2013-01-01 12:01:00,21.7,5.5,29.69,SSE,153,5.0,9.0,49,0.00,,,0.00,WeatherCatV1.11B39,2013-01-01 17:01:00,
2013-01-01 12:06:00,21.0,4.4,29.69,NE,46,0.0,4.0,48,0.00,,,0.00,WeatherCatV1.11B39,2013-01-01 17:06:00,
2013-01-01 12:11:00,21.0,4.9,29.70,SE,140,0.0,7.0,49,0.00,,,0.00,WeatherCatV1.11B39,2013-01-01 17:11:00,
2013-01-01 12:16:00,20.6,4.9,29.69,NNE,17,4.0,6.0,50,0.00,,,0.00,WeatherCatV1.11B39,2013-01-01 17:16:00,
2013-01-01 12:21:00,20.3,5.5,29.69,SSE,167,1.0,7.0,52,0.00,,,0.00,WeatherCatV1.11B39,2013-01-01 17:21:00,
2013-01-01 12:26:00,20.2,5.0,29.68,ENE,65,7.0,9.0,51,0.00,,,0.00,WeatherCatV1.11B39,2013-01-01 17:26:00,
2013-01-01 12:31:00,19.7,5.0,29.68,WSW,238,5.0,13.0,52,0.00,,,0.00,WeatherCatV1.11B39,2013-01-01 17:31:00,
2013-01-01 12:36:00,19.3,5.0,29.69,ESE,117,1.0,7.0,53,0.00,,,0.00,WeatherCatV1.11B39,2013-01-01 17:36:00,
2013-01-01 12:41:00,19.6,5.3,29.68,NE,56,9.0,9.0,53,0.00,,,0.00,WeatherCatV1.11B39,2013-01-01 17:41:00,
2013-01-01 12:46:00,19.6,4.9,29.69,ENE,76,0.0,2.0,52,0.00,,,0.00,WeatherCatV1.11B39,2013-01-01 17:46:00,
2013-01-01 12:51:00,20.3,5.9,29.68,East,84,4.0,5.0,53,0.00,,,0.00,WeatherCatV1.11B39,2013-01-01 17:51:00,
2013-01-01 12:56:00,19.8,5.5,29.68,ESE,117,3.0,4.0,53,0.00,,,0.00,WeatherCatV1.11B39,2013-01-01 17:56:00,
2013-01-01 13:01:00,20.0,5.2,29.69,ENE,72,0.0,4.0,52,0.00,,,0.00,WeatherCatV1.11B39,2013-01-01 18:01:00,
2013-01-01 13:06:00,20.6,5.4,29.69,ESE,111,0.0,10.0,51,0.00,,,0.00,WeatherCatV1.11B39,2013-01-01 18:06:00,
2013-01-01 13:11:00,20.3,4.2,29.69,SSW,213,0.0,4.0,49,0.00,,,0.00,WeatherCatV1.11B39,2013-01-01 18:11:00,
2013-01-01 13:16:00,20.0,3.0,29.68,SE,142,4.0,10.0,47,0.00,,,0.00,WeatherCatV1.11B39,2013-01-01 18:16:00,
2013-01-01 13:21:00,20.5,3.5,29.69,South,183,1.0,3.0,47,0.00,,,0.00,WeatherCatV1.11B39,2013-01-01 18:21:00,
2013-01-01 13:26:00,20.4,2.5,29.69,East,87,9.0,17.0,45,0.00,,,0.00,WeatherCatV1.11B39,2013-01-01 18:26:00,
2013-01-01 13:31:00,19.8,2.9,29.68,SSE,167,3.0,4.0,47,0.00,,,0.00,WeatherCatV1.11B39,2013-01-01 18:31:00,
2013-01-01 13:36:00,20.0,3.9,29.69,WSW,237,1.0,4.0,49,0.00,,,0.00,WeatherCatV1.11B39,2013-01-01 18:36:00,
2013-01-01 13:41:00,19.6,4.0,29.68,NNE,13,1.0,4.0,50,0.00,,,0.00,WeatherCatV1.11B39,2013-01-01 18:41:00,
2013-01-01 13:46:00,19.5,3.5,29.68,NE,44,2.0,4.0,49,0.00,,,0.00,WeatherCatV1.11B39,2013-01-01 18:46:00,
2013-01-01 13:51:00,19.6,3.6,29.68,West,267,1.0,6.0,49,0.00,,,0.00,WeatherCatV1.11B39,2013-01-01 18:51:00,
2013-01-01 13:56:00,19.7,3.2,29.68,ESE,113,2.0,7.0,48,0.00,,,0.00,WeatherCatV1.11B39,2013-01-01 18:56:00,
2013-01-01 14:01:00,19.3,3.3,29.69,SSW,195,4.0,4.0,49,0.00,,,0.00,WeatherCatV1.11B39,2013-01-01 19:01:00,
2013-01-01 14:06:00,18.9,2.9,29.69,SSE,150,1.0,4.0,49,0.00,,,0.00,WeatherCatV1.11B39,2013-01-01 19:06:00,
2013-01-01 14:11:00,18.7,2.3,29.70,NW,317,3.0,5.0,48,0.00,,,0.00,WeatherCatV1.11B39,2013-01-01 19:11:00,
2013-01-01 14:16:00,18.0,1.7,29.69,ESE,109,3.0,11.0,48,0.00,,,0.00,WeatherCatV1.11B39,2013-01-01 19:16:00,
2013-01-01 14:21:00,17.7,1.4,29.70,ESE,111,1.0,6.0,48,0.00,,,0.00,WeatherCatV1.11B39,2013-01-01 19:21:00,
2013-01-01 14:26:00,17.8,2.3,29.70,West,260,0.0,3.0,50,0.00,,,0.00,WeatherCatV1.11B39,2013-01-01 19:26:00,
2013-01-01 14:31:00,18.1,1.3,29.70,SE,133,2.0,4.0,47,0.00,,,0.00,WeatherCatV1.11B39,2013-01-01 19:31:00,
2013-01-01 14:36:00,18.1,1.3,29.70,SE,142,2.0,7.0,47,0.00,,,0.00,WeatherCatV1.11B39,2013-01-01 19:36:00,
2013-01-01 14:41:00,17.4,1.5,29.70,ESE,111,2.0,2.0,49,0.00,,,0.00,WeatherCatV1.11B39,2013-01-01 19:41:00,
2013-01-01 14:46:00,17.5,1.6,29.69,ENE,78,3.0,9.0,49,0.00,,,0.00,WeatherCatV1.11B39,2013-01-01 19:46:00,
2013-01-01 14:51:00,17.6,1.7,29.70,North,0,8.0,16.0,49,0.00,,,0.00,WeatherCatV1.11B39,2013-01-01 19:51:00,
2013-01-01 14:56:00,17.5,1.6,29.70,ENE,67,0.0,1.0,49,0.00,,,0.00,WeatherCatV1.11B39,2013-01-01 19:56:00,
2013-01-01 15:01:00,17.8,1.9,29.70,East,87,4.0,6.0,49,0.00,,,0.00,WeatherCatV1.11B39,2013-01-01 20:01:00,
2013-01-01 15:06:00,17.9,2.0,29.70,East,97,0.0,4.0,49,0.00,,,0.00,WeatherCatV1.11B39,2013-01-01 20:06:00,
2013-01-01 15:11:00,17.6,0.8,29.70,ENE,65,3.0,3.0,47,0.00,,,0.00,WeatherCatV1.11B39,2013-01-01 20:11:00,
2013-01-01 15:16:00,17.0,1.2,29.70,SSE,160,0.0,2.0,49,0.00,,,0.00,WeatherCatV1.11B39,2013-01-01 20:16:00,
2013-01-01 15:21:00,16.1,0.8,29.70,ENE,71,1.0,5.0,50,0.00,,,0.00,WeatherCatV1.11B39,2013-01-01 20:21:00,
2013-01-01 15:26:00,15.7,0.8,29.71,SSW,197,4.0,9.0,51,0.00,,,0.00,WeatherCatV1.11B39,2013-01-01 20:26:00,
2013-01-01 15:31:00,15.3,0.5,29.71,NNE,30,0.0,4.0,51,0.00,,,0.00,WeatherCatV1.11B39,2013-01-01 20:31:00,
2013-01-01 15:36:00,15.0,1.4,29.71,ENE,74,0.0,2.0,54,0.00,,,0.00,WeatherCatV1.11B39,2013-01-01 20:36:00,
2013-01-01 15:41:00,14.8,0.8,29.70,SSE,150,0.0,13.0,53,0.00,,,0.00,WeatherCatV1.11B39,2013-01-01 20:41:00,
2013-01-01 15:46:00,14.7,0.7,29.70,NE,53,0.0,8.0,53,0.00,,,0.00,WeatherCatV1.11B39,2013-01-01 20:46:00,
2013-01-01 15:51:00,14.6,0.6,29.70,ENE,71,2.0,4.0,53,0.00,,,0.00,WeatherCatV1.11B39,2013-01-01 20:51:00,
2013-01-01 15:56:00,14.5,0.5,29.71,ESE,105,2.0,5.0,53,0.00,,,0.00,WeatherCatV1.11B39,2013-01-01 20:56:00,
2013-01-01 16:01:00,14.3,0.3,29.72,SSE,157,2.0,5.0,53,0.00,,,0.00,WeatherCatV1.11B39,2013-01-01 21:01:00,
2013-01-01 16:06:00,14.1,0.5,29.72,NNE,14,0.0,7.0,54,0.00,,,0.00,WeatherCatV1.11B39,2013-01-01 21:06:00,
2013-01-01 16:11:00,13.9,0.4,29.72,ESE,110,0.0,4.0,54,0.00,,,0.00,WeatherCatV1.11B39,2013-01-01 21:11:00,
2013-01-01 16:16:00,13.8,-0.1,29.72,South,182,3.0,3.0,53,0.00,,,0.00,WeatherCatV1.11B39,2013-01-01 21:16:00,
2013-01-01 16:21:00,13.6,0.1,29.72,ESE,108,1.0,3.0,54,0.00,,,0.00,WeatherCatV1.11B39,2013-01-01 21:21:00,
2013-01-01 16:26:00,13.5,-0.4,29.72,ESE,115,1.0,3.0,53,0.00,,,0.00,WeatherCatV1.11B39,2013-01-01 21:26:00,
2013-01-01 16:31:00,13.5,0.4,29.73,ENE,70,0.0,1.0,55,0.00,,,0.00,WeatherCatV1.11B39,2013-01-01 21:31:00,
2013-01-01 16:36:00,13.4,-0.1,29.74,ESE,104,0.0,1.0,54,0.00,,,0.00,WeatherCatV1.11B39,2013-01-01 21:36:00,
2013-01-01 16:41:00,13.4,-0.1,29.74,ENE,63,5.0,6.0,54,0.00,,,0.00,WeatherCatV1.11B39,2013-01-01 21:41:00,
2013-01-01 16:46:00,13.4,-0.1,29.73,North,9,6.0,9.0,54,0.00,,,0.00,WeatherCatV1.11B39,2013-01-01 21:46:00,
2013-01-01 16:51:00,13.2,-0.3,29.74,SSE,152,0.0,2.0,54,0.00,,,0.00,WeatherCatV1.11B39,2013-01-01 21:51:00,
2013-01-01 16:56:00,13.0,-0.1,29.75,ENE,71,3.0,5.0,55,0.00,,,0.00,WeatherCatV1.11B39,2013-01-01 21:56:00,
2013-01-01 17:01:00,12.7,0.4,29.75,ENE,69,0.0,1.0,57,0.00,,,0.00,WeatherCatV1.11B39,2013-01-01 22:01:00,
2013-01-01 17:06:00,12.6,0.3,29.75,ESE,116,1.0,3.0,57,0.00,,,0.00,WeatherCatV1.11B39,2013-01-01 22:06:00,
2013-01-01 17:11:00,12.5,0.2,29.75,SW,223,4.0,6.0,57,0.00,,,0.00,WeatherCatV1.11B39,2013-01-01 22:11:00,
2013-01-01 17:16:00,12.6,-0.5,29.75,ENE,65,4.0,9.0,55,0.00,,,0.00,WeatherCatV1.11B39,2013-01-01 22:16:00,
2013-01-01 17:21:00,12.5,-0.6,29.75,ENE,63,3.0,3.0,55,0.00,,,0.00,WeatherCatV1.11B39,2013-01-01 22:21:00,
2013-01-01 17:26:00,12.3,-0.4,29.76,NE,45,7.0,7.0,56,0.00,,,0.00,WeatherCatV1.11B39,2013-01-01 22:26:00,
2013-01-01 17:31:00,12.3,-0.7,29.76,ENE,72,0.0,5.0,55,0.00,,,0.00,WeatherCatV1.11B39,2013-01-01 22:31:00,
2013-01-01 17:36:00,12.2,-0.5,29.76,ENE,72,0.0,1.0,56,0.00,,,0.00,WeatherCatV1.11B39,2013-01-01 22:36:00,
2013-01-01 17:41:00,12.0,-0.3,29.76,ESE,117,0.0,10.0,57,0.00,,,0.00,WeatherCatV1.11B39,2013-01-01 22:41:00,
2013-01-01 17:46:00,12.1,-0.2,29.77,ESE,109,1.0,2.0,57,0.00,,,0.00,WeatherCatV1.11B39,2013-01-01 22:46:00,
2013-01-01 17:51:00,12.0,-0.3,29.77,ENE,70,3.0,6.0,57,0.00,,,0.00,WeatherCatV1.11B39,2013-01-01 22:51:00,
2013-01-01 17:56:00,11.9,-0.4,29.76,ENE,70,0.0,3.0,57,0.00,,,0.00,WeatherCatV1.11B39,2013-01-01 22:56:00,
2013-01-01 18:01:00,11.9,-0.7,29.77,WSW,238,1.0,1.0,56,0.00,,,0.00,WeatherCatV1.11B39,2013-01-01 23:01:00,
2013-01-01 18:06:00,11.7,0.2,29.78,ESE,114,1.0,1.0,59,0.00,,,0.00,WeatherCatV1.11B39,2013-01-01 23:06:00,
2013-01-01 18:11:00,11.1,0.3,29.78,ESE,114,0.0,2.0,61,0.00,,,0.00,WeatherCatV1.11B39,2013-01-01 23:11:00,
2013-01-01 18:16:00,11.0,-0.5,29.78,ENE,77,0.0,2.0,59,0.00,,,0.00,WeatherCatV1.11B39,2013-01-01 23:16:00,
2013-01-01 18:21:00,11.0,0.2,29.78,ENE,74,2.0,3.0,61,0.00,,,0.00,WeatherCatV1.11B39,2013-01-01 23:21:00,
2013-01-01 18:26:00,10.9,-0.2,29.79,ESE,106,0.0,0.0,60,0.00,,,0.00,WeatherCatV1.11B39,2013-01-01 23:26:00,
2013-01-01 18:31:00,10.8,-0.3,29.78,ENE,75,3.0,5.0,60,0.00,,,0.00,WeatherCatV1.11B39,2013-01-01 23:31:00,
2013-01-01 18:36:00,10.9,-0.6,29.79,East,84,0.0,3.0,59,0.00,,,0.00,WeatherCatV1.11B39,2013-01-01 23:36:00,
2013-01-01 18:41:00,10.9,-0.9,29.79,East,83,3.0,5.0,58,0.00,,,0.00,WeatherCatV1.11B39,2013-01-01 23:41:00,
2013-01-01 18:46:00,10.9,-0.9,29.80,ESE,115,0.0,1.0,58,0.00,,,0.00,WeatherCatV1.11B39,2013-01-01 23:46:00,
2013-01-01 18:51:00,10.6,-0.5,29.79,East,95,3.0,5.0,60,0.00,,,0.00,WeatherCatV1.11B39,2013-01-01 23:51:00,
2013-01-01 18:56:00,10.5,-1.0,29.80,East,90,3.0,4.0,59,0.00,,,0.00,WeatherCatV1.11B39,2013-01-01 23:56:00,
2013-01-01 19:01:00,10.4,-0.7,29.81,ESE,115,2.0,2.0,60,0.00,,,0.00,WeatherCatV1.11B39,2013-01-02 00:01:00,
2013-01-01 19:06:00,10.0,-0.7,29.82,ESE,114,0.0,0.0,61,0.00,,,0.00,WeatherCatV1.11B39,2013-01-02 00:06:00,
2013-01-01 19:11:00,10.1,-1.0,29.81,ENE,61,4.0,4.0,60,0.00,,,0.00,WeatherCatV1.11B39,2013-01-02 00:11:00,
2013-01-01 19:16:00,10.1,-1.0,29.82,East,89,0.0,5.0,60,0.00,,,0.00,WeatherCatV1.11B39,2013-01-02 00:16:00,
2013-01-01 19:21:00,10.0,-0.7,29.83,East,82,0.0,4.0,61,0.00,,,0.00,WeatherCatV1.11B39,2013-01-02 00:21:00,
2013-01-01 19:26:00,9.9,-1.2,29.83,SSE,167,0.0,2.0,60,0.00,,,0.00,WeatherCatV1.11B39,2013-01-02 00:26:00,
2013-01-01 19:31:00,9.9,-1.2,29.83,ESE,113,9.0,13.0,60,0.00,,,0.00,WeatherCatV1.11B39,2013-01-02 00:31:00,
2013-01-01 19:36:00,9.9,-1.2,29.83,South,180,0.0,4.0,60,0.00,,,0.00,WeatherCatV1.11B39,2013-01-02 00:36:00,
2013-01-01 19:41:00,10.0,-1.8,29.83,ESE,102,1.0,5.0,58,0.00,,,0.00,WeatherCatV1.11B39,2013-01-02 00:41:00,
2013-01-01 19:46:00,10.0,-1.4,29.83,SSE,152,0.0,2.0,59,0.00,,,0.00,WeatherCatV1.11B39,2013-01-02 00:46:00,
2013-01-01 19:51:00,10.0,-1.8,29.83,South,188,0.0,1.0,58,0.00,,,0.00,WeatherCatV1.11B39,2013-01-02 00:51:00,
2013-01-01 19:56:00,10.0,-1.8,29.83,South,183,1.0,5.0,58,0.00,,,0.00,WeatherCatV1.11B39,2013-01-02 00:56:00,
2013-01-01 20:01:00,10.0,-1.4,29.84,South,169,0.0,0.0,59,0.00,,,0.00,WeatherCatV1.11B39,2013-01-02 01:01:00,
2013-01-01 20:06:00,9.9,-1.2,29.84,South,170,1.0,1.0,60,0.00,,,0.00,WeatherCatV1.11B39,2013-01-02 01:06:00,
2013-01-01 20:11:00,9.8,-1.6,29.84,South,170,0.0,2.0,59,0.00,,,0.00,WeatherCatV1.11B39,2013-01-02 01:11:00,
2013-01-01 20:16:00,9.6,-1.1,29.84,East,92,3.0,5.0,61,0.00,,,0.00,WeatherCatV1.11B39,2013-01-02 01:16:00,
2013-01-01 20:21:00,9.6,-1.5,29.84,South,171,0.0,0.0,60,0.00,,,0.00,WeatherCatV1.11B39,2013-01-02 01:21:00,
2013-01-01 20:26:00,9.4,-1.6,29.84,SSW,196,0.0,4.0,60,0.00,,,0.00,WeatherCatV1.11B39,2013-01-02 01:26:00,
2013-01-01 20:31:00,9.4,-1.6,29.84,ENE,75,0.0,5.0,60,0.00,,,0.00,WeatherCatV1.11B39,2013-01-02 01:31:00,
2013-01-01 20:36:00,9.4,-1.6,29.84,East,83,0.0,5.0,60,0.00,,,0.00,WeatherCatV1.11B39,2013-01-02 01:36:00,
2013-01-01 20:41:00,9.4,-1.6,29.84,East,83,0.0,0.0,60,0.00,,,0.00,WeatherCatV1.11B39,2013-01-02 01:41:00,
2013-01-01 20:46:00,9.4,-1.3,29.84,NW,325,2.0,4.0,61,0.00,,,0.00,WeatherCatV1.11B39,2013-01-02 01:46:00,
2013-01-01 20:51:00,9.3,-1.4,29.84,ESE,109,2.0,2.0,61,0.00,,,0.00,WeatherCatV1.11B39,2013-01-02 01:51:00,
2013-01-01 20:56:00,9.2,-1.8,29.84,East,90,0.0,0.0,60,0.00,,,0.00,WeatherCatV1.11B39,2013-01-02 01:56:00,
2013-01-01 21:01:00,9.1,-1.9,29.84,SE,128,0.0,1.0,60,0.00,,,0.00,WeatherCatV1.11B39,2013-01-02 02:01:00,
2013-01-01 21:06:00,9.0,-1.7,29.84,NNE,28,0.0,3.0,61,0.00,,,0.00,WeatherCatV1.11B39,2013-01-02 02:06:00,
2013-01-01 21:11:00,8.7,-1.3,29.83,East,90,4.0,4.0,63,0.00,,,0.00,WeatherCatV1.11B39,2013-01-02 02:11:00,
2013-01-01 21:16:00,8.5,-1.5,29.84,East,88,2.0,2.0,63,0.00,,,0.00,WeatherCatV1.11B39,2013-01-02 02:16:00,
2013-01-01 21:21:00,8.4,-1.2,29.83,East,87,0.0,2.0,64,0.00,,,0.00,WeatherCatV1.11B39,2013-01-02 02:21:00,
2013-01-01 21:26:00,8.2,-1.4,29.84,East,88,2.0,2.0,64,0.00,,,0.00,WeatherCatV1.11B39,2013-01-02 02:26:00,
2013-01-01 21:31:00,7.9,-1.7,29.84,NNE,26,3.0,4.0,64,0.00,,,0.00,WeatherCatV1.11B39,2013-01-02 02:31:00,
2013-01-01 21:36:00,8.1,-1.9,29.84,ESE,107,6.0,9.0,63,0.00,,,0.00,WeatherCatV1.11B39,2013-01-02 02:36:00,
2013-01-01 21:41:00,8.2,-1.8,29.84,ENE,63,0.0,9.0,63,0.00,,,0.00,WeatherCatV1.11B39,2013-01-02 02:41:00,
2013-01-01 21:46:00,8.3,-1.7,29.84,East,84,2.0,2.0,63,0.00,,,0.00,WeatherCatV1.11B39,2013-01-02 02:46:00,
2013-01-01 21:51:00,8.2,-1.4,29.84,West,279,0.0,5.0,64,0.00,,,0.00,WeatherCatV1.11B39,2013-01-02 02:51:00,
2013-01-01 21:56:00,8.1,-1.5,29.84,ENE,71,3.0,5.0,64,0.00,,,0.00,WeatherCatV1.11B39,2013-01-02 02:56:00,
2013-01-01 22:01:00,8.2,-1.8,29.84,WSW,242,0.0,0.0,63,0.00,,,0.00,WeatherCatV1.11B39,2013-01-02 03:01:00,
2013-01-01 22:07:00,8.2,-1.8,29.83,NW,315,3.0,5.0,63,0.00,,,0.00,WeatherCatV1.11B39,2013-01-02 03:07:00,
2013-01-01 22:12:00,8.0,-1.6,29.84,NW,307,0.0,2.0,64,0.00,,,0.00,WeatherCatV1.11B39,2013-01-02 03:12:00,
2013-01-01 22:17:00,7.9,-2.0,29.83,ENE,60,2.0,3.0,63,0.00,,,0.00,WeatherCatV1.11B39,2013-01-02 03:17:00,
2013-01-01 22:22:00,7.7,-1.6,29.83,NNE,32,0.0,4.0,65,0.00,,,0.00,WeatherCatV1.11B39,2013-01-02 03:22:00,
2013-01-01 22:27:00,7.6,-2.0,29.83,ESE,117,1.0,5.0,64,0.00,,,0.00,WeatherCatV1.11B39,2013-01-02 03:27:00,
2013-01-01 22:32:00,8.0,-1.6,29.83,SSW,196,0.0,4.0,64,0.00,,,0.00,WeatherCatV1.11B39,2013-01-02 03:32:00,
2013-01-01 22:37:00,8.3,-1.7,29.83,SSE,151,0.0,18.0,63,0.00,,,0.00,WeatherCatV1.11B39,2013-01-02 03:37:00,
2013-01-01 22:42:00,8.3,-2.0,29.83,ENE,57,3.0,6.0,62,0.00,,,0.00,WeatherCatV1.11B39,2013-01-02 03:42:00,
2013-01-01 22:47:00,8.3,-1.7,29.84,ENE,69,1.0,7.0,63,0.00,,,0.00,WeatherCatV1.11B39,2013-01-02 03:47:00,
2013-01-01 22:52:00,8.3,-2.0,29.84,SE,144,3.0,7.0,62,0.00,,,0.00,WeatherCatV1.11B39,2013-01-02 03:52:00,
2013-01-01 22:57:00,8.4,-1.6,29.83,WNW,283,2.0,13.0,63,0.00,,,0.00,WeatherCatV1.11B39,2013-01-02 03:57:00,
2013-01-01 23:02:00,8.5,-1.8,29.83,ENE,75,3.0,5.0,62,0.00,,,0.00,WeatherCatV1.11B39,2013-01-02 04:02:00,
2013-01-01 23:07:00,8.3,-1.7,29.83,East,88,0.0,5.0,63,0.00,,,0.00,WeatherCatV1.11B39,2013-01-02 04:07:00,
2013-01-01 23:12:00,8.4,-1.6,29.83,ESE,123,9.0,12.0,63,0.00,,,0.00,WeatherCatV1.11B39,2013-01-02 04:12:00,
2013-01-01 23:17:00,8.5,-1.5,29.83,ESE,107,1.0,13.0,63,0.00,,,0.00,WeatherCatV1.11B39,2013-01-02 04:17:00,
2013-01-01 23:22:00,8.5,-1.5,29.83,East,90,2.0,14.0,63,0.00,,,0.00,WeatherCatV1.11B39,2013-01-02 04:22:00,
2013-01-01 23:27:00,8.6,-1.0,29.83,ESE,113,6.0,13.0,64,0.00,,,0.00,WeatherCatV1.11B39,2013-01-02 04:27:00,
2013-01-01 23:32:00,8.7,-0.9,29.82,SE,133,0.0,14.0,64,0.00,,,0.00,WeatherCatV1.11B39,2013-01-02 04:32:00,
2013-01-01 23:37:00,8.7,-0.9,29.82,SSE,153,9.0,15.0,64,0.00,,,0.00,WeatherCatV1.11B39,2013-01-02 04:37:00,
2013-01-01 23:42:00,8.8,-0.9,29.82,SSE,149,5.0,13.0,64,0.00,,,0.00,WeatherCatV1.11B39,2013-01-02 04:42:00,
2013-01-01 23:47:00,8.8,-0.9,29.82,ENE,66,14.0,24.0,64,0.00,,,0.00,WeatherCatV1.11B39,2013-01-02 04:47:00,
2013-01-01 23:52:00,8.8,-0.5,29.82,South,182,7.0,11.0,65,0.00,,,0.00,WeatherCatV1.11B39,2013-01-02 04:52:00,
2013-01-01 23:57:00,8.8,-0.5,29.83,NNE,20,2.0,11.0,65,0.00,,,0.00,WeatherCatV1.11B39,2013-01-02 04:57:00,